[[{"header":{"parameterUnit":"m.s-1","parameterCategory":1,"la1":30.2991,"la2":30.254,"lo1":-89.0895,"lo2":-89.0444,"dy":0.0017,"dx":0.0017,"nx":28,"ny":28,"refTime":"2024-08-05T21:00:00:Z","depth":0,"parameterNumber":2,"parameterNumberName":"U-component_of_WINDS"},"data":[0,0,0,0,0,0,0,0,0,0,0,0,0,0,0,0,0,0,0,0,0,0,0,0,0,0,0,0,0,0,0,0,0,0,0,0,0,0,0,0,0,0,0,0,0,0,0,0,0,0,0,0,0,0,0,0,0,0,1.6567,1.6569,0,1.6747,1.6749,1.6751,1.6722,1.6719,1.6716,1.6713,1.69,1.6908,1.6916,0,0,0,0,0,0,0,0,0,0,0,0,0,1.6201,1.6208,1.6567,1.6569,1.6571,1.6747,1.6749,1.6752,1.6722,1.6719,1.6715,1.6711,1.6897,1.6907,1.6916,0,0,0,0,0,0,0,0,0,0,0,0,0,1.6369,1.621,1.6566,1.6578,1.658,1.6746,1.6749,1.6752,1.6723,1.6719,1.6714,1.671,1.6894,1.6906,1.6918,1.7084,0,0,1.6954,1.6959,0,0,0,0,0,0,0,0,1.6359,1.6382,1.6574,1.6577,1.6581,1.6707,1.6689,1.6864,1.6724,1.6669,1.6713,1.6707,1.684,1.6856,1.69,1.7093,1.7101,1.6955,1.6962,1.6967,1.697,0,0,0,0,0,0,0,1.6348,1.6374,1.6638,1.6577,1.6581,1.6575,1.6594,1.6722,1.6779,1.6674,1.6672,1.6693,1.6841,1.6889,1.6904,1.7104,1.6954,1.6965,1.6972,1.6977,1.7445,1.7451,0,0,0,0,0,0,1.6332,1.6365,1.6632,1.6643,1.6456,1.6586,1.6606,1.6671,1.6777,1.6789,1.6697,1.6691,1.6871,1.689,1.6911,1.7115,1.6967,1.6978,1.6985,1.744,1.7447,1.7452,0,0,0,0,0,0,1.6325,1.6356,1.6625,1.6504,1.6538,1.6597,1.667,1.6677,1.6725,1.6795,1.6805,1.6736,1.6868,1.6894,1.7042,1.7121,1.6983,1.6994,1.7434,1.7442,1.745,1.7523,0,0,0,0,0,0,1.6314,1.6354,1.6416,1.6505,1.6544,1.6752,1.6675,1.6684,1.6745,1.6739,1.6834,1.6845,1.6866,1.7024,1.7053,1.7135,1.7003,1.7427,1.7438,1.7447,1.7514,1.7532,1.7548,0,0,0,0,0,1.6301,1.643,1.642,1.6452,1.6624,1.6756,1.6779,1.68,1.6752,1.6816,1.6862,1.6842,1.7107,1.704,1.7072,1.7158,1.7422,1.7435,1.7446,1.7506,1.7529,1.7548,0,0,0,0,0,0,1.6349,1.6442,1.6431,1.6592,1.6667,1.6751,1.6833,1.6823,1.6913,1.6904,1.6928,1.6949,1.71,1.7143,1.7066,1.7326,1.7258,1.7277,1.7292,1.7315,1.7332,1.7318,1.7013,0,0,0,0,0,1.6378,1.6477,1.6553,1.6688,1.6726,1.6773,1.6832,1.6842,1.692,1.6952,1.7008,1.7086,1.7187,1.7253,1.7349,1.752,1.7541,1.7595,1.7612,1.7626,1.7643,1.7739,1.7764,1.7492,1.7492,1.7492,0,0,1.6439,1.6502,1.6563,1.6699,1.6758,1.6862,1.68,1.6911,1.6989,1.6969,1.7112,1.7156,1.7245,1.7405,1.7479,1.7446,1.7723,1.7642,1.7652,1.7661,1.7754,1.778,1.7803,1.75,1.7499,1.7497,0,0,1.6604,1.6661,1.6781,1.6841,1.6931,1.6962,1.6991,1.7078,1.7107,1.7251,1.7238,1.7332,1.7505,1.7569,1.7625,1.7817,1.7804,1.7848,1.7939,1.8033,1.8054,1.8073,1.8144,1.8169,1.7864,1.7865,1.7865,0,1.6669,1.6824,1.6844,1.6958,1.7019,1.7005,1.7128,1.7186,1.7304,1.7347,1.7309,1.7528,1.7586,1.7763,1.781,1.7854,1.789,1.7838,1.8049,1.8069,1.8087,1.8155,1.8181,1.787,1.7869,1.7868,1.7868,0,1.6901,1.7009,1.7095,1.7209,1.728,1.7397,1.7437,1.7506,1.7511,1.7547,1.7695,1.7765,1.7877,1.7919,1.7925,1.8098,1.8075,1.8043,1.7975,1.8118,1.8182,1.8208,1.7877,1.7875,1.7873,1.7872,0,0,1.71,1.7225,1.7256,1.7309,1.7408,1.7493,1.7611,1.772,1.7781,1.7863,1.7964,1.8112,1.8084,1.8147,1.8159,1.8241,1.8392,1.82,1.8202,1.8235,1.859,1.8615,1.8644,1.8383,1.8388,1.8392,1.8583,0,1.7276,1.7484,1.7506,1.7693,1.7794,1.7784,1.7888,1.7961,1.7998,1.8091,1.8132,1.8237,1.8191,1.8229,1.8309,1.8357,1.8464,1.8343,1.848,1.8485,1.8459,1.8678,1.8703,1.888,1.8608,1.8613,1.8616,0,1.7508,1.7597,1.7794,1.7882,1.7926,1.8018,1.8121,1.8209,1.8293,1.8315,1.8387,1.839,1.8514,1.8441,1.8614,1.8531,1.8588,1.8621,1.8628,1.8642,1.8559,1.87,1.8937,1.8964,1.8655,1.8652,1.8649,0,1.7636,1.7805,1.7946,1.7991,1.8096,1.8162,1.8209,1.8289,1.8354,1.8445,1.8488,1.8592,1.8649,1.8731,1.8763,1.8706,1.8935,1.8864,1.8958,1.8958,1.9007,1.9004,1.9259,1.9042,1.9042,1.9041,1.9041,0,1.783,1.7952,1.8005,1.8091,1.8228,1.8253,1.8388,1.8433,1.8504,1.86,1.8598,1.8688,1.8724,1.8822,1.8847,1.8988,1.9014,1.9036,1.9042,1.9037,1.9035,1.9076,1.9065,1.9048,1.9047,1.9045,1.9044,0,1.7996,1.8036,1.8189,1.8277,1.8302,1.8399,1.8475,1.856,1.8597,1.8719,1.8749,1.8807,1.8922,1.8961,1.91,1.9118,1.9282,1.9277,1.9254,1.9255,1.9348,1.9339,1.9639,1.9681,1.9435,1.9438,1.944,0,1.8117,1.8211,1.831,1.8374,1.8424,1.8527,1.8594,1.8624,1.8694,1.8798,1.8871,1.8985,1.9077,1.9261,1.9317,1.9424,1.9422,1.9519,1.9438,1.9431,1.9425,1.942,1.943,1.9535,1.9537,1.9539,1.9541,0,1.833,1.8346,1.8442,1.8547,1.8627,1.871,1.8791,1.8844,1.8886,1.8965,1.9083,1.9154,1.9297,1.9411,1.9521,1.9571,1.9565,1.9566,1.9594,1.9591,1.9574,1.9587,1.9297,1.9559,1.9558,1.9556,1.9555,1.9555,1.8479,1.8562,1.8645,1.8753,1.8818,1.8894,1.8979,1.9027,1.9125,1.9243,1.9255,1.9382,1.9467,1.9613,1.9669,1.977,1.9743,1.9783,1.9793,1.9803,1.9811,1.9558,1.979,1.979,1.9789,1.9789,1.9788,0,1.8692,1.8746,1.8845,1.8959,1.9045,1.9031,1.912,1.9194,1.9305,1.9384,1.9476,1.9612,1.9723,1.9788,1.99,1.9969,1.9969,1.9997,1.9993,2.0005,1.9828,1.9793,1.9996,1.9996,1.9996,1.9996,1.9995,1.9995,1.8814,1.8955,1.8982,1.9156,1.9209,1.9333,1.9386,1.9457,1.9521,1.9673,1.9765,1.9807,1.9882,1.9999,2.0102,2.0118,2.016,2.0192,2.0206,2.0039,2.0017,1.9997,1.9965,2.02,2.0201,2.0375,2.0377,2.0378]},{"header":{"parameterUnit":"m.s-1","parameterCategory":1,"la1":30.2991,"la2":30.254,"lo1":-89.0895,"lo2":-89.0444,"dy":0.0017,"dx":0.0017,"nx":28,"ny":28,"refTime":"2024-08-05T21:00:00:Z","depth":0,"parameterNumber":3,"parameterNumberName":"V-component_of_WINDS"},"data":[0,0,0,0,0,0,0,0,0,0,0,0,0,0,0,0,0,0,0,0,0,0,0,0,0,0,0,0,0,0,0,0,0,0,0,0,0,0,0,0,0,0,0,0,0,0,0,0,0,0,0,0,0,0,0,0,0,0,0.4645,0.4645,0,0.4648,0.4648,0.4648,0.4529,0.4526,0.4523,0.452,0.4527,0.453,0.4533,0,0,0,0,0,0,0,0,0,0,0,0,0,0.4538,0.4541,0.4645,0.4645,0.4645,0.4648,0.4648,0.4648,0.453,0.4526,0.4522,0.4518,0.4526,0.453,0.4534,0,0,0,0,0,0,0,0,0,0,0,0,0,0.4568,0.4542,0.4645,0.4586,0.4581,0.4648,0.4648,0.4648,0.4531,0.4526,0.4521,0.4517,0.4525,0.4529,0.4534,0.4659,0,0,0.4549,0.4551,0,0,0,0,0,0,0,0,0.4566,0.4572,0.4595,0.459,0.4585,0.4583,0.4613,0.4652,0.4532,0.455,0.452,0.4514,0.455,0.4552,0.4564,0.4659,0.466,0.4549,0.4552,0.4554,0.4555,0,0,0,0,0,0,0,0.4564,0.4571,0.4646,0.4595,0.4589,0.456,0.4559,0.462,0.4577,0.4548,0.4539,0.4541,0.4546,0.4559,0.4563,0.466,0.4549,0.4553,0.4556,0.4558,0.4855,0.486,0,0,0,0,0,0,0.457,0.457,0.4646,0.4646,0.4563,0.4566,0.4565,0.4589,0.4576,0.4569,0.4545,0.4536,0.4554,0.4557,0.4563,0.4706,0.4554,0.4558,0.4561,0.485,0.4857,0.4862,0,0,0,0,0,0,0.4568,0.4578,0.4646,0.4606,0.4612,0.4573,0.4601,0.4591,0.4604,0.4574,0.4566,0.4566,0.455,0.4556,0.4635,0.4705,0.456,0.4565,0.4844,0.4852,0.4859,0.4996,0,0,0,0,0,0,0.4566,0.4578,0.4625,0.4608,0.4615,0.4719,0.4605,0.4595,0.4612,0.46,0.4591,0.4585,0.4547,0.4629,0.464,0.4709,0.4568,0.4838,0.4848,0.4857,0.4985,0.5007,0.5026,0,0,0,0,0,0.4562,0.4665,0.4628,0.4638,0.4672,0.4723,0.4727,0.4679,0.4618,0.4665,0.4645,0.4586,0.4695,0.4638,0.4649,0.4721,0.4833,0.4845,0.4856,0.4976,0.5003,0.5026,0,0,0,0,0,0,0.4693,0.4661,0.462,0.472,0.4725,0.4703,0.476,0.471,0.4733,0.4721,0.4661,0.466,0.4749,0.4743,0.4679,0.484,0.4754,0.4768,0.4841,0.4866,0.4886,0.4886,0.4572,0,0,0,0,0,0.4733,0.4775,0.4746,0.4837,0.4841,0.4801,0.4821,0.4783,0.4786,0.4788,0.4774,0.478,0.4815,0.484,0.4872,0.4983,0.4979,0.5038,0.5059,0.5076,0.5089,0.5146,0.5171,0.4899,0.4899,0.4899,0,0,0.4817,0.4805,0.4836,0.4863,0.4862,0.4907,0.4803,0.4857,0.489,0.4797,0.4869,0.486,0.4862,0.4958,0.4999,0.4955,0.5163,0.509,0.5104,0.5108,0.516,0.5186,0.5209,0.4907,0.4906,0.4904,0,0,0.4993,0.4988,0.5062,0.5063,0.5062,0.5034,0.5052,0.5037,0.5026,0.5098,0.5028,0.5067,0.5131,0.5135,0.5145,0.532,0.5266,0.5332,0.544,0.5496,0.5517,0.5536,0.5598,0.562,0.5345,0.5345,0.5346,0,0.5098,0.5163,0.5107,0.5164,0.5178,0.5093,0.5168,0.5171,0.5182,0.5194,0.5144,0.5219,0.5216,0.531,0.5352,0.5364,0.5382,0.5333,0.5519,0.5537,0.5553,0.5611,0.5635,0.5353,0.5352,0.5352,0.5351,0,0.5291,0.5337,0.5397,0.5407,0.5427,0.5493,0.5447,0.5475,0.5435,0.5412,0.5486,0.5478,0.5505,0.5524,0.5487,0.5613,0.5586,0.5529,0.5441,0.5588,0.5641,0.5663,0.5365,0.5362,0.536,0.5358,0,0,0.5551,0.5527,0.555,0.5552,0.5544,0.5579,0.564,0.5665,0.5689,0.5699,0.5749,0.5802,0.5748,0.576,0.5723,0.5772,0.5909,0.5708,0.5707,0.5745,0.6046,0.6089,0.6116,0.5873,0.5877,0.588,0.6046,0,0.5721,0.5823,0.5774,0.5882,0.5923,0.5842,0.5895,0.5897,0.5877,0.5909,0.5887,0.5926,0.5852,0.5859,0.5904,0.5883,0.5969,0.5871,0.5919,0.5922,0.5921,0.6144,0.619,0.6347,0.6066,0.607,0.6072,0,0.5933,0.5949,0.6061,0.6042,0.6058,0.6107,0.6124,0.6156,0.6155,0.6137,0.6149,0.6099,0.6158,0.6071,0.6151,0.6085,0.6102,0.6095,0.61,0.6103,0.6006,0.6152,0.6396,0.6419,0.6105,0.6102,0.61,0,0.6111,0.616,0.6232,0.6237,0.6218,0.6254,0.6248,0.6242,0.6259,0.6275,0.6285,0.6309,0.6321,0.6341,0.6298,0.6239,0.6384,0.6294,0.6371,0.6372,0.6405,0.6404,0.6655,0.6417,0.6417,0.6416,0.6416,0,0.6305,0.6377,0.6311,0.6356,0.6433,0.6376,0.6454,0.6439,0.6435,0.6475,0.6407,0.6447,0.6389,0.6423,0.639,0.6461,0.6468,0.6455,0.6445,0.6461,0.6463,0.6471,0.6459,0.6423,0.6421,0.642,0.6419,0,0.6517,0.6476,0.6549,0.6524,0.6519,0.6577,0.6556,0.6597,0.6571,0.6623,0.6632,0.6592,0.6629,0.6588,0.6622,0.66,0.6695,0.667,0.6695,0.6688,0.6767,0.676,0.7032,0.7064,0.6807,0.6809,0.6811,0,0.6644,0.6696,0.6675,0.6697,0.6694,0.673,0.6746,0.6691,0.6711,0.6713,0.6753,0.6783,0.6804,0.6867,0.6841,0.6867,0.6841,0.6934,0.6845,0.6858,0.6842,0.6839,0.6843,0.6953,0.6956,0.6959,0.6961,0,0.6873,0.6849,0.6874,0.6892,0.6913,0.6925,0.6932,0.6954,0.6896,0.6922,0.6957,0.6974,0.7007,0.7038,0.7055,0.705,0.6996,0.6989,0.7008,0.7024,0.7036,0.703,0.6745,0.6983,0.6981,0.6979,0.6978,0.6977,0.7045,0.7087,0.7078,0.7108,0.7107,0.7115,0.715,0.7128,0.7156,0.7177,0.7143,0.7187,0.7183,0.7201,0.7201,0.7235,0.7195,0.7223,0.723,0.7238,0.7249,0.7031,0.7238,0.7238,0.7237,0.7236,0.7236,0,0.727,0.726,0.7287,0.7298,0.7321,0.7266,0.727,0.7294,0.7333,0.7333,0.7354,0.7394,0.7423,0.7399,0.7423,0.7455,0.7431,0.7463,0.746,0.7459,0.7284,0.7265,0.7482,0.7482,0.7482,0.7482,0.7482,0.7482,0.739,0.7457,0.7432,0.7498,0.7487,0.7528,0.7535,0.7542,0.7541,0.7588,0.7611,0.7594,0.7584,0.7606,0.763,0.7623,0.7635,0.7676,0.7659,0.7496,0.7472,0.7449,0.743,0.7679,0.7679,0.7831,0.7833,0.7834]}]]